Hourly Data Report for October 29, 2016

All times are specified in Local Standard Time (LST). Add 1 hour to adjust for Daylight Saving Time where and when it is observed.

HALL BEACH A
NUNAVUT

68°46'33.000" N
81°14'33.000" W
9.10 m
2402354
71293
YUX

Related Data

No related data is available for this station

Download Data

Hourly Data (October 2016)
Hourly Data Report for October 29, 2016
Temp Definition
°C
Dew Point Temp Definition
°C
Rel Hum Definition
%
Wind Dir Definition
10's deg

Wind Spd Definition
km/h
Visibility Definition
km
Stn Press Definition
kPa
Hmdx Definition


Wind Chill Definition


Weather Definition


TIME
00:00 Legend Double Dagger -9.8 -13.8 73 16 11 16.1 100.00   -15 LegendNANA
01:00 Legend Double Dagger -10.7 -13.3 82 9 13 16.1 99.98   -17 Snow
02:00 Legend Double Dagger -9.2 -11.2 86 13 11 14.5 99.98   -15 Snow
03:00 Legend Double Dagger -9.3 -12.4 79 10 15 16.1 99.94   -16 LegendNANA
04:00 Legend Double Dagger -7.8 -12.7 68 12 13 16.1 99.90   -14 LegendNANA
05:00 Legend Double Dagger -7.5 -12.2 69 9 13 16.1 99.87   -13 LegendNANA
06:00 Legend Double Dagger -8.1 -11.6 76 LegendMM 9 16.1 99.83   -13 Snow
07:00 Legend Double Dagger -10.7 -12.6 86 LegendMM 9 16.1 99.79   -16 LegendNANA
08:00 Legend Double Dagger -7.9 -11.0 79 7 11 16.1 99.76   -13 LegendNANA
09:00 Legend Double Dagger -8.6 -11.3 81 8 8 16.1 99.73   -13 LegendNANA
10:00 Legend Double Dagger -9.0 -10.7 88 9 9 16.1 99.74   -14 LegendNANA
11:00 Legend Double Dagger -10.1 -12.0 86 25 9 16.1 99.77   -15 LegendNANA
12:00 Legend Double Dagger -11.3 -13.0 87 26 11 16.1 99.80   -17 LegendNANA
13:00 Legend Double Dagger -11.9 -14.0 85 30 8 16.1 99.84   -17 LegendNANA
14:00 Legend Double Dagger -11.9 -13.4 89 31 13 16.1 99.88   -19 LegendNANA
15:00 Legend Double Dagger -12.9 -14.4 89 31 15 16.1 99.90   -20 LegendNANA
16:00 Legend Double Dagger -13.4 -14.4 92 32 18 16.1 99.91   -22 LegendNANA
17:00 Legend Double Dagger -12.8 -13.8 92 31 21 16.1 99.89   -22 LegendNANA
18:00 Legend Double Dagger -12.4 -13.7 90 31 21 16.1 99.87   -21 Snow
19:00 Legend Double Dagger -11.7 -13.1 89 31 24 6.4 99.81   -21 Snow
20:00 Legend Double Dagger -10.8 -12.1 90 30 26 2.8 99.75   -20 Snow
21:00 Legend Double Dagger -10.3 -11.5 91 29 32 2.0 99.66   -20 Snow
22:00 Legend Double Dagger -9.4 -10.6 91 29 28 6.4 99.58   -18 Snow
23:00 Legend Double Dagger -9.4 -10.5 92 30 13 16.1 99.58   -15 LegendNANA

Notes on Data Quality.

Legend

  • E = Estimated
  • M = Missing
  • NA = Not Available
  • ‡ = Partner data that is not subject to review by the National Climate Archives
Date modified: